[[{"header":{"parameterUnit":"m.s-1","parameterCategory":1,"la1":30.2991,"la2":30.254,"lo1":-89.0895,"lo2":-89.0444,"dy":0.0017,"dx":0.0017,"nx":28,"ny":28,"refTime":"2024-04-10T21:00:00:Z","depth":0,"parameterNumber":2,"parameterNumberName":"U-component_of_WINDS"},"data":[0,0,0,0,0,0,0,0,0,0,0,0,0,0,0,0,0,0,0,0,0,0,0,0,0,0,0,0,0,0,0,0,0,0,0,0,0,0,0,0,0,0,0,0,0,0,0,0,0,0,0,0,0,0,0,0,0,0,3.8394,3.8395,0,3.8507,3.8509,3.851,3.8449,3.8445,3.8442,3.8439,3.8558,3.8564,3.857,0,0,0,0,0,0,0,0,0,0,0,0,0,3.8126,3.8131,3.8394,3.8395,3.8396,3.8507,3.8509,3.851,3.8449,3.8445,3.8442,3.8438,3.8556,3.8563,3.857,0,0,0,0,0,0,0,0,0,0,0,0,0,3.8241,3.8133,3.8393,3.8379,3.8379,3.8507,3.8509,3.8511,3.845,3.8445,3.8441,3.8436,3.8553,3.8562,3.8571,3.872,0,0,3.8599,3.8603,0,0,0,0,0,0,0,0,3.8235,3.8251,3.838,3.838,3.838,3.8459,3.8458,3.8581,3.8451,3.8423,3.8439,3.8434,3.8529,3.854,3.8571,3.8725,3.873,3.86,3.8605,3.8609,3.8612,0,0,0,0,0,0,0,3.8227,3.8246,3.8439,3.8382,3.8382,3.8368,3.8379,3.8481,3.8501,3.8425,3.8421,3.8435,3.8528,3.8563,3.8573,3.8732,3.8599,3.8607,3.8613,3.8617,3.9014,3.9019,0,0,0,0,0,0,3.8219,3.824,3.8435,3.8442,3.8295,3.8377,3.8389,3.8439,3.8499,3.8504,3.8439,3.8432,3.8549,3.8563,3.8577,3.8755,3.8609,3.8617,3.8623,3.9009,3.9016,3.9021,0,0,0,0,0,0,3.8214,3.8237,3.843,3.834,3.8363,3.8386,3.8442,3.8443,3.8477,3.851,3.8513,3.847,3.8546,3.8565,3.8685,3.8759,3.8621,3.863,3.9003,3.9011,3.9018,3.9113,0,0,0,0,0,0,3.8206,3.8236,3.8292,3.8341,3.8368,3.8536,3.8447,3.8449,3.8493,3.8485,3.854,3.8545,3.8544,3.8672,3.8694,3.8769,3.8637,3.8997,3.9007,3.9016,3.9103,3.9123,3.914,0,0,0,0,0,3.8197,3.8314,3.8295,3.8319,3.8439,3.854,3.8555,3.8551,3.8499,3.8556,3.8577,3.8543,3.8747,3.8684,3.8709,3.8788,3.8992,3.9004,3.9015,3.9095,3.9119,3.9139,0,0,0,0,0,0,3.8273,3.832,3.83,3.8436,3.8485,3.8529,3.8601,3.8577,3.8641,3.8631,3.8624,3.8637,3.8762,3.8787,3.8716,3.8935,3.8862,3.8879,3.8914,3.8937,3.8955,3.8946,3.8644,0,0,0,0,0,3.8306,3.8383,3.8421,3.8538,3.8563,3.8578,3.8622,3.8615,3.8665,3.8685,3.8714,3.8765,3.884,3.889,3.8961,3.9107,3.9118,3.9173,3.9191,3.9206,3.9221,3.93,3.9324,3.9059,3.9059,3.9059,0,0,3.8374,3.841,3.8459,3.8554,3.859,3.8671,3.8596,3.8684,3.8745,3.8699,3.8813,3.8837,3.8893,3.9027,3.9087,3.9051,3.9296,3.9221,3.9232,3.9239,3.9314,3.9339,3.9361,3.9067,3.9066,3.9064,0,0,3.854,3.8575,3.8676,3.8714,3.877,3.8779,3.8804,3.8853,3.8867,3.8982,3.8949,3.9021,3.9151,3.9192,3.923,3.9412,3.9384,3.9436,3.9531,3.9608,3.9629,3.9647,3.9712,3.9736,3.9451,3.9451,3.9451,0,3.8618,3.8738,3.8731,3.8823,3.8866,3.8827,3.893,3.8968,3.9045,3.9076,3.9034,3.9197,3.9232,3.9374,3.9419,3.9451,3.9479,3.9429,3.9626,3.9645,3.9662,3.9724,3.9748,3.9457,3.9456,3.9455,3.9455,0,3.8831,3.8915,3.899,3.9065,3.9116,3.9213,3.9222,3.9275,3.9264,3.9278,3.9396,3.9437,3.9515,3.9549,3.9539,3.9691,3.9667,3.9626,3.9552,3.9693,3.9751,3.9775,3.9465,3.9463,3.9461,3.946,0,0,3.9047,3.9117,3.9145,3.9179,3.9238,3.9303,3.9399,3.9475,3.9521,3.9576,3.9656,3.9767,3.973,3.9773,3.9768,3.9836,3.9977,3.9787,3.9788,3.9821,4.0147,4.0177,4.0204,3.9959,3.9963,3.9967,4.0142,0,3.9217,3.9383,3.938,3.9535,3.9612,3.9577,3.9661,3.9707,3.9723,3.9791,3.9809,3.9888,3.9833,3.9859,3.9925,3.9946,4.0043,3.9934,4.0034,4.0037,4.002,4.0235,4.0266,4.043,4.0165,4.0169,4.0172,0,3.9437,3.9498,3.966,3.9708,3.9741,3.9816,3.9886,3.9952,4.0004,4.0011,4.0059,4.0043,4.0141,4.0065,4.02,4.0125,4.0166,4.0183,4.019,4.0198,4.0113,4.0249,4.0482,4.0506,4.0207,4.0205,4.0202,0,3.9578,3.9701,3.9814,3.9844,3.9903,3.9957,3.9984,4.0031,4.0078,4.0139,4.0169,4.0242,4.0282,4.0339,4.0343,4.0287,4.0479,4.0403,4.0487,4.0488,4.0529,4.0526,4.0771,4.0556,4.0556,4.0556,4.0555,0,3.9767,3.9868,3.9878,3.9948,4.006,4.0056,4.0167,4.0189,4.0232,4.0305,4.028,4.035,4.0352,4.0423,4.0427,4.0538,4.0557,4.0565,4.0565,4.0567,4.0566,4.0593,4.0582,4.0562,4.0561,4.0559,4.0558,0,3.9943,3.9955,4.0075,4.0122,4.0136,4.0216,4.0256,4.0323,4.0336,4.043,4.0452,4.0474,4.0557,4.0567,4.0664,4.0667,4.08,4.0788,4.0783,4.0781,4.0864,4.0856,4.1135,4.1171,4.0933,4.0936,4.0938,0,4.0063,4.0139,4.0194,4.0241,4.0271,4.0348,4.0395,4.0395,4.0445,4.051,4.0569,4.0649,4.0713,4.0848,4.0873,4.0947,4.0936,4.1029,4.0947,4.0947,4.0937,4.0933,4.094,4.1045,4.1047,4.1049,4.1051,0,4.0274,4.0276,4.0344,4.0416,4.0472,4.0529,4.0581,4.0622,4.0628,4.0686,4.077,4.082,4.0919,4.0999,4.1072,4.1101,4.1078,4.1077,4.11,4.1103,4.1096,4.11,4.0825,4.107,4.1068,4.1067,4.1066,4.1065,4.0426,4.0492,4.0541,4.0618,4.0658,4.0707,4.0772,4.0794,4.0864,4.0944,4.094,4.1033,4.1084,4.1179,4.1214,4.1287,4.1256,4.129,4.1299,4.1307,4.1315,4.1085,4.13,4.13,4.1299,4.1299,4.1298,0,4.0635,4.0665,4.0736,4.081,4.0871,4.0844,4.0901,4.0954,4.1036,4.1085,4.1148,4.1245,4.1323,4.1355,4.1431,4.1484,4.1475,4.1504,4.1499,4.1506,4.1338,4.131,4.1509,4.1509,4.1509,4.1509,4.1509,4.1509,4.0751,4.0862,4.087,4.1,4.1029,4.112,4.1155,4.1201,4.1239,4.1349,4.1413,4.1433,4.1475,4.1555,4.1625,4.1632,4.1661,4.1695,4.1698,4.154,4.1518,4.1498,4.1471,4.1701,4.1702,4.1859,4.1861,4.1862]},{"header":{"parameterUnit":"m.s-1","parameterCategory":1,"la1":30.2991,"la2":30.254,"lo1":-89.0895,"lo2":-89.0444,"dy":0.0017,"dx":0.0017,"nx":28,"ny":28,"refTime":"2024-04-10T21:00:00:Z","depth":0,"parameterNumber":3,"parameterNumberName":"V-component_of_WINDS"},"data":[0,0,0,0,0,0,0,0,0,0,0,0,0,0,0,0,0,0,0,0,0,0,0,0,0,0,0,0,0,0,0,0,0,0,0,0,0,0,0,0,0,0,0,0,0,0,0,0,0,0,0,0,0,0,0,0,0,0,-3.3998,-3.3999,0,-3.4141,-3.4142,-3.4144,-3.4107,-3.4104,-3.4101,-3.4099,-3.4248,-3.4255,-3.4261,0,0,0,0,0,0,0,0,0,0,0,0,0,-3.3696,-3.3702,-3.3998,-3.3999,-3.4001,-3.4141,-3.4142,-3.4144,-3.4108,-3.4104,-3.4101,-3.4098,-3.4246,-3.4254,-3.4262,0,0,0,0,0,0,0,0,0,0,0,0,0,-3.3832,-3.3704,-3.3997,-3.4,-3.4001,-3.414,-3.4143,-3.4145,-3.4108,-3.4104,-3.41,-3.4096,-3.4244,-3.4253,-3.4263,-3.441,0,0,-3.4294,-3.4298,0,0,0,0,0,0,0,0,-3.3824,-3.3843,-3.3997,-3.4,-3.4002,-3.4102,-3.4091,-3.4234,-3.4109,-3.4068,-3.4099,-3.4094,-3.4203,-3.4216,-3.4253,-3.4417,-3.4423,-3.4294,-3.43,-3.4305,-3.4308,0,0,0,0,0,0,0,-3.3815,-3.3837,-3.4054,-3.4,-3.4002,-3.3995,-3.4009,-3.4118,-3.4158,-3.4071,-3.4069,-3.4086,-3.4204,-3.4243,-3.4256,-3.4425,-3.4294,-3.4303,-3.4309,-3.4313,-3.4718,-3.4723,0,0,0,0,0,0,-3.3804,-3.3829,-3.405,-3.4059,-3.3901,-3.4004,-3.402,-3.4074,-3.4156,-3.4165,-3.4089,-3.4084,-3.4228,-3.4244,-3.4261,-3.4439,-3.4305,-3.4314,-3.432,-3.4714,-3.4719,-3.4725,0,0,0,0,0,0,-3.3797,-3.3824,-3.4044,-3.3943,-3.3971,-3.4013,-3.4074,-3.4079,-3.4118,-3.417,-3.4178,-3.4122,-3.4225,-3.4247,-3.4373,-3.4444,-3.4318,-3.4327,-3.4708,-3.4715,-3.4722,-3.4795,0,0,0,0,0,0,-3.3789,-3.3821,-3.3877,-3.3945,-3.3976,-3.4153,-3.4079,-3.4085,-3.4135,-3.4129,-3.4203,-3.4211,-3.4224,-3.4358,-3.4383,-3.4455,-3.4335,-3.4702,-3.4711,-3.472,-3.4787,-3.4804,-3.4819,0,0,0,0,0,-3.3778,-3.3892,-3.388,-3.3906,-3.4046,-3.4157,-3.4175,-3.4186,-3.4141,-3.4198,-3.4231,-3.4209,-3.4432,-3.4372,-3.4399,-3.4475,-3.4697,-3.4709,-3.4719,-3.478,-3.4801,-3.4819,0,0,0,0,0,0,-3.3832,-3.3901,-3.3888,-3.4027,-3.4086,-3.415,-3.4222,-3.4208,-3.4282,-3.4274,-3.4286,-3.4303,-3.4432,-3.4466,-3.4398,-3.4622,-3.4558,-3.4575,-3.4595,-3.4615,-3.4631,-3.4621,-3.4343,0,0,0,0,0,-3.386,-3.3943,-3.3999,-3.4117,-3.4147,-3.418,-3.4228,-3.4232,-3.4294,-3.4319,-3.4362,-3.4424,-3.4508,-3.4564,-3.4644,-3.4791,-3.4808,-3.4857,-3.4873,-3.4886,-3.4901,-3.4983,-3.5006,-3.476,-3.476,-3.476,0,0,-3.3919,-3.3967,-3.4019,-3.4129,-3.4175,-3.4262,-3.4201,-3.4295,-3.4361,-3.4334,-3.4456,-3.4489,-3.456,-3.4698,-3.476,-3.473,-3.4973,-3.49,-3.491,-3.4918,-3.4997,-3.502,-3.5041,-3.4767,-3.4766,-3.4765,0,0,-3.4071,-3.4115,-3.4218,-3.4265,-3.4336,-3.4357,-3.4382,-3.4449,-3.447,-3.4592,-3.4574,-3.4652,-3.4797,-3.4848,-3.4893,-3.5065,-3.5048,-3.5091,-3.5175,-3.5255,-3.5275,-3.5292,-3.5355,-3.5377,-3.5105,-3.5105,-3.5106,0,-3.4135,-3.4265,-3.4273,-3.437,-3.4419,-3.4398,-3.4504,-3.455,-3.4644,-3.4679,-3.4643,-3.4825,-3.487,-3.5021,-3.5063,-3.5099,-3.5129,-3.5083,-3.5271,-3.5288,-3.5305,-3.5365,-3.5388,-3.511,-3.511,-3.5109,-3.5109,0,-3.4341,-3.4432,-3.4507,-3.4597,-3.4655,-3.4756,-3.478,-3.4838,-3.4837,-3.4862,-3.4988,-3.5042,-3.5134,-3.5169,-3.5169,-3.532,-3.5299,-3.5267,-3.5204,-3.5333,-3.539,-3.5413,-3.5117,-3.5115,-3.5114,-3.5113,0,0,-3.4531,-3.4625,-3.4653,-3.4694,-3.477,-3.4841,-3.4941,-3.503,-3.508,-3.5146,-3.5231,-3.5354,-3.5325,-3.5376,-3.5382,-3.5452,-3.5587,-3.5411,-3.5413,-3.5443,-3.5758,-3.5783,-3.5809,-3.5575,-3.558,-3.5583,-3.5753,0,-3.4691,-3.4866,-3.4877,-3.5037,-3.5121,-3.5102,-3.519,-3.5247,-3.5274,-3.535,-3.538,-3.5467,-3.5422,-3.5453,-3.5521,-3.5556,-3.565,-3.5544,-3.5657,-3.5661,-3.5641,-3.5839,-3.5865,-3.6022,-3.5775,-3.5779,-3.5781,0,-3.49,-3.4972,-3.5139,-3.5205,-3.5241,-3.5319,-3.5402,-3.5475,-3.554,-3.5554,-3.5612,-3.5608,-3.5712,-3.5644,-3.579,-3.5717,-3.5764,-3.5788,-3.5794,-3.5806,-3.573,-3.5857,-3.6073,-3.6097,-3.5816,-3.5813,-3.5811,0,-3.5024,-3.5162,-3.528,-3.5316,-3.5395,-3.5451,-3.5487,-3.5548,-3.5601,-3.5673,-3.5708,-3.5792,-3.5839,-3.5905,-3.5924,-3.5872,-3.607,-3.6003,-3.6086,-3.6086,-3.6129,-3.6126,-3.6356,-3.6157,-3.6157,-3.6157,-3.6156,0,-3.5202,-3.5305,-3.5337,-3.541,-3.5526,-3.5538,-3.5653,-3.5686,-3.574,-3.582,-3.5809,-3.5885,-3.5906,-3.5986,-3.6002,-3.6121,-3.6141,-3.6157,-3.6161,-3.6159,-3.6157,-3.6191,-3.6181,-3.6163,-3.6161,-3.616,-3.6159,0,-3.536,-3.5384,-3.5513,-3.5577,-3.5596,-3.5679,-3.5734,-3.5806,-3.583,-3.5932,-3.5957,-3.5996,-3.609,-3.6116,-3.6228,-3.6239,-3.6379,-3.6372,-3.6357,-3.6358,-3.644,-3.6432,-3.67,-3.6737,-3.6513,-3.6515,-3.6517,0,-3.5472,-3.5551,-3.5624,-3.5676,-3.5714,-3.5799,-3.5853,-3.5868,-3.5925,-3.6005,-3.6067,-3.6159,-3.6234,-3.6385,-3.6425,-3.6511,-3.6507,-3.6595,-3.652,-3.6516,-3.651,-3.6505,-3.6514,-3.6609,-3.6612,-3.6613,-3.6615,0,-3.5669,-3.5677,-3.5755,-3.5837,-3.5902,-3.5967,-3.6031,-3.6074,-3.6099,-3.6164,-3.6259,-3.6317,-3.6431,-3.6524,-3.6611,-3.665,-3.6638,-3.6638,-3.6662,-3.6662,-3.6651,-3.666,-3.6397,-3.6632,-3.663,-3.6629,-3.6628,-3.6628,-3.5809,-3.5879,-3.5941,-3.6028,-3.6077,-3.6136,-3.6206,-3.624,-3.6319,-3.6413,-3.6418,-3.6522,-3.6586,-3.6702,-3.6746,-3.6828,-3.6802,-3.6837,-3.6846,-3.6855,-3.6862,-3.6637,-3.6844,-3.6844,-3.6843,-3.6843,-3.6842,0,-3.6006,-3.6045,-3.6125,-3.6214,-3.6283,-3.6263,-3.6333,-3.6392,-3.6483,-3.6544,-3.6617,-3.6728,-3.6818,-3.6865,-3.6954,-3.7011,-3.7008,-3.7035,-3.7031,-3.7041,-3.688,-3.685,-3.7036,-3.7036,-3.7036,-3.7036,-3.7036,-3.7036,-3.6117,-3.6235,-3.6251,-3.6394,-3.6433,-3.6534,-3.6575,-3.6631,-3.6679,-3.6803,-3.6877,-3.6906,-3.6962,-3.7056,-3.7138,-3.715,-3.7184,-3.7214,-3.7223,-3.7072,-3.7052,-3.7033,-3.7006,-3.7221,-3.7221,-3.7377,-3.7379,-3.738]}]]